This demonstration page uses our WeatherBlox Daily Observations layout. Learn more.

Left ArrowRight Arrow

39.92423, -83.80882

Hourly Observations for February 7, 2020

Temp ( °F °C ) Dew Point ( °F °C ) Humidity (%) Winds ( mph kmh ) Pressure ( in mb ) Visibility ( mi km ) Precip ( " mm )
12:56 am 00:56 Cloudy with Light Snow 27 -2.8 26 -3.3 96 96 N 12 19 29.45 997 9 14 0.00 0.00
1:46 am 01:46 Cloudy with Light Snow 27 -3 27 -3 100 100 NNW 10 17 29.45 997 7 11 0.00 0.00
1:56 am 01:56 Cloudy with Light Snow 27 -2.8 27 -2.8 100 100 N 12 19 29.42 996 7 11 0.00 0.00
2:56 am 02:56 Cloudy with Light Snow 26 -3.3 26 -3.3 100 100 NNW 13 20 29.40 996 9 14 0.00 0.00
3:16 am 03:16 Cloudy with Light Snow 27 -3 25 -4 93 93 NNW 13 20 29.43 996 9 14 0.00 0.00
3:56 am 03:56 Cloudy with Light Snow 26 -3.3 25 -3.9 96 96 NNW 13 20 29.41 996 3 5 0.00 0.00
4:56 am 04:56 Cloudy with Light Snow 26 -3.3 25 -3.9 96 96 WNW 10 17 29.43 997 9 14 0.00 0.00
5:56 am 05:56 Cloudy with Light Snow 26 -3.3 26 -3.3 100 100 WNW 12 19 29.46 998 7 11 0.00 0.00
6:04 am 06:04 Cloudy with Light Snow 27 -3 27 -3 100 100 WNW 10 17 29.49 998 6 10 0.00 0.00
6:56 am 06:56 Cloudy with Light Snow 26 -3.3 26 -3.3 100 100 WNW 10 17 29.49 999 3 5 0.00 0.00
7:40 am 07:40 Cloudy with Light Snow 25 -4 25 -4 100 100 WNW 13 20 29.55 1001 3 4 0.00 0.00
7:56 am 07:56 Cloudy with Light Snow 25 -3.9 25 -3.9 100 100 WNW 13 20 29.53 1000 2 2 0.00 0.00
8:12 am 08:12 Cloudy with Light Snow 25 -4 25 -4 100 100 WNW 14 22 29.57 1001 3 5 0.00 0.00
8:56 am 08:56 Cloudy with Light Snow 25 -3.9 25 -3.9 100 100 WNW 13 20 29.57 1002 3 4 0.00 0.00
9:22 am 09:22 Cloudy with Light Snow 25 -4 25 -4 100 100 WNW 12 19 29.62 1003 3 5 0.00 0.00
9:29 am 09:29 Cloudy with Light Snow 25 -4 25 -4 100 100 WNW 14 22 29.62 1003 3 4 0.00 0.00
9:38 am 09:38 Cloudy with Light Snow 25 -4 25 -4 100 100 WNW 15 24 29.63 1003 3 4 0.00 0.00
9:56 am 09:56 Cloudy with Light Snow 25 -3.9 25 -3.9 100 100 WNW 15 24 29.60 1003 3 5 0.00 0.00
10:22 am 10:22 Cloudy with Light Snow 27 -3 25 -4 93 93 WNW 15 24 29.65 1004 3 5 0.00 0.00
10:56 am 10:56 Cloudy with Light Snow 26 -3.3 25 -3.9 96 96 WNW 14 22 29.65 1004 4 6 0.00 0.00
11:56 am 11:56 Cloudy 27 -2.8 25 -3.9 92 92 WNW 15 24 29.68 1005 10 16 0.00 0.00
12:56 pm 12:56 Cloudy 29 -1.7 26 -3.3 89 89 WNW 17 28 29.70 1006 10 16 N/A
1:23 pm 13:23 Cloudy 28 -2 27 -3 93 93 WNW 16 26 29.74 1007 10 16 N/A
1:56 pm 13:56 Cloudy 30 -1.1 26 -3.3 85 85 W 17 28 29.73 1007 10 16 N/A
2:56 pm 14:56 Cloudy 29 -1.7 25 -3.9 85 85 NW 13 20 29.77 1008 10 16 N/A
3:56 pm 15:56 Mostly Cloudy 30 -1.1 26 -3.3 85 85 W 13 20 29.82 1010 10 16 N/A
4:19 pm 16:19 Cloudy 30 -1 27 -3 86 86 W 15 24 29.85 1011 10 16 N/A
4:56 pm 16:56 Cloudy with Light Snow 30 -1.1 25 -3.9 82 82 W 18 30 29.85 1011 9 14 0.00 0.00
5:56 pm 17:56 Partly Cloudy 29 -1.7 24 -4.4 82 82 W 14 22 29.89 1012 10 16 0.00 0.00
6:56 pm 18:56 Clear 26 -3.3 22 -5.6 84 84 W 8 13 29.94 1014 10 16 N/A
7:56 pm 19:56 Clear 23 -5 22 -5.6 96 96 WSW 7 11 29.96 1015 10 16 N/A
8:56 pm 20:56 Partly Cloudy 24 -4.4 22 -5.6 91 91 WSW 6 9 29.99 1016 10 16 N/A
9:56 pm 21:56 Mostly Cloudy 26 -3.3 23 -5 88 88 SW 7 11 30.01 1016 10 16 N/A
10:56 pm 22:56 Mostly Cloudy 27 -2.8 24 -4.4 89 89 WSW 8 13 30.03 1017 10 16 N/A
11:56 pm 23:56 Clear 25 -3.9 24 -4.4 96 96 SW 8 13 30.05 1018 10 16 N/A

Powered by AerisWeather